Weather in Decin

Czech Republic     50°46′47″N   14°12′57″E
temp.,
°C
wind,
m/s
gust,
m/s
humid.,
%
clouds,
%
prec.,
mm/h
press.,
hPa
HPBL,
m
7 march, sun
sun701:00−2wsw128023 0.0 102923
04:00−2wsw128341 0.0 102743
07:00−1sw138138 0.0 1026104
10:00+3w35590 0.0 1024904
13:00+5wnw465521 0.0 10221171
16:00+5nw465847 0.0 10201093
19:00−1n138838 0.0 1020109
22:00−1nw388577 0.0 1021566
8 march, mon
mon801:00−2nw249258 0.0 1020166
04:00−2wnw269470 0.1 1020356
07:00−1nw139683 0.4 1021162
10:00+1n2474100 0.1 1023768
13:00+4n224797 0.1 10221387
16:00+3nne335142 0.0 10221067
19:00−2nne126821 0.0 102225
22:00−3nne116435 0.0 102321
9 march, tue
tue901:00−3se116342 0.0 102221
04:00−2se1167100 0.0 102131
07:00−2se1265100 0.0 1021121
10:00+1s2262100 0.0 1020542
13:00+2s2271100 0.1 1020607
16:00+2s1171100 0.2 1019641
19:00−1ese009092 0.2 102021
22:00−2sse019445 0.0 102021
10 march, wed
wed1001:00−2ssw019463 0.0 102021
04:00−2wsw019662 0.0 102021
07:00−2sw009470 0.0 102221
10:00+3ssw116746 0.0 1023612
13:00+4ssw126463 0.1 1023849
16:00+5ssw226384 0.1 1021995
19:000sse128677 0.1 102123
22:00−1sse239183 0.0 102175
11 march, thu
thu1101:00−1sse349491 0.0 1018121
04:00+1sse41088100 0.0 1014430
07:00+2s61493100 1.9 1012770
10:00+6ssw61481100 0.8 1010924
13:00+9sw51376100 0.8 1007988
16:00+9sw51678100 0.0 10061442
19:00+8sw41585100 0.1 10061249
22:00+5wsw21283100 0.1 1007888